Tracking 32954 objects as of 18-Jan-2026
HD Live streaming from Space Station
objects crossing your sky now

PICO-01B009

Track PICO-01B009 now!
10-day predictions


NORAD ID: 58287
Int'l Code: 2023-174AH
Perigee: 406.5 km
Apogee: 411.6 km
Inclination: 97.4 °
Period: 92.6 minutes
Semi major axis: 6780 km
RCS: Unknown
Launch date: November 11, 2023
Source: Italy (IT)
Launch site: AIR FORCE WESTERN TEST RANGE (AFWTR)
Your satellite tracking list
Your tracking list is empty




NASA's NSSDC Master Catalog

Two Line Element Set (TLE):
1 58287U 23174AH  26017.95300058  .00044178  00000-0  65556-3 0  9997
2 58287  97.3932 107.2734 0003767 317.8793  42.2171 15.55089212122640
Source of the keplerian elements: AFSPC